ETD220 OMAA-VECC

Flight info

Callsign ETD220
Flight time 4h 11m
Altitude 35000
Route KANIP4K KANIP N318 GEVED N881 RASKI L639 BPL/N0454F370 A791 JJS JJS2A
Aircraft A21N/M-SDE2E3FGHIRWXY/LB1

Departure

Time 2026-04-24 06:29
Airport Zayed International Airport (OMAA)

Arrival

Time 2026-04-24 10:40
Airport Netaji Subhash Chandra Bose International Airport (VECC)
Time Latitude Longitude Altitude Speed Heading
2026-04-24 05:56 24.44614 54.64552 94 ft 0 kts 238°
2026-04-24 06:11 24.44614 54.64553 94 ft 0 kts 238°
2026-04-24 06:12 24.44615 54.64553 94 ft 0 kts 238°
2026-04-24 06:14 24.44618 54.64558 94 ft 4 kts 237°
2026-04-24 06:14 24.44634 54.64582 97 ft 4 kts 223°
2026-04-24 06:15 24.44656 54.64598 94 ft 4 kts 200°
2026-04-24 06:15 24.44679 54.64601 96 ft 4 kts 158°
2026-04-24 06:15 24.44688 54.64596 96 ft 1 kts 139°
2026-04-24 06:19 24.44682 54.64602 95 ft 3 kts 139°
2026-04-24 06:19 24.44656 54.64627 94 ft 6 kts 137°
2026-04-24 06:19 24.44621 54.64668 94 ft 8 kts 131°
2026-04-24 06:19 24.44579 54.64717 96 ft 10 kts 152°
2026-04-24 06:20 24.44513 54.64703 98 ft 11 kts 213°
2026-04-24 06:20 24.44448 54.64649 94 ft 12 kts 218°
2026-04-24 06:20 24.44379 54.64589 94 ft 14 kts 218°
2026-04-24 06:20 24.44300 54.64523 96 ft 15 kts 216°
2026-04-24 06:21 24.44223 54.64520 94 ft 12 kts 139°
2026-04-24 06:21 24.44166 54.64597 96 ft 14 kts 128°
2026-04-24 06:21 24.44105 54.64683 95 ft 15 kts 128°
2026-04-24 06:21 24.44039 54.64775 95 ft 16 kts 128°
2026-04-24 06:22 24.43967 54.64851 94 ft 14 kts 168°
2026-04-24 06:22 24.43880 54.64806 94 ft 15 kts 222°
2026-04-24 06:22 24.43816 54.64752 95 ft 7 kts 201°
2026-04-24 06:22 24.43768 54.64771 94 ft 8 kts 139°
2026-04-24 06:23 24.43728 54.64824 96 ft 10 kts 128°
2026-04-24 06:23 24.43681 54.64889 94 ft 12 kts 128°
2026-04-24 06:23 24.43625 54.64967 97 ft 14 kts 128°
2026-04-24 06:23 24.43556 54.65063 96 ft 17 kts 128°
2026-04-24 06:24 24.43476 54.65176 95 ft 20 kts 128°
2026-04-24 06:24 24.43384 54.65304 97 ft 23 kts 128°
2026-04-24 06:24 24.43281 54.65449 98 ft 25 kts 128°
2026-04-24 06:24 24.43168 54.65610 96 ft 28 kts 128°
2026-04-24 06:25 24.43044 54.65785 97 ft 30 kts 127°
2026-04-24 06:25 24.42917 54.65968 97 ft 31 kts 128°
2026-04-24 06:25 24.42790 54.66145 96 ft 30 kts 128°
2026-04-24 06:25 24.42668 54.66317 96 ft 28 kts 127°
2026-04-24 06:26 24.42547 54.66490 96 ft 26 kts 127°
2026-04-24 06:26 24.42448 54.66631 95 ft 23 kts 128°
2026-04-24 06:26 24.42365 54.66749 95 ft 14 kts 126°
2026-04-24 06:26 24.42313 54.66802 94 ft 11 kts 172°
2026-04-24 06:27 24.42250 54.66772 94 ft 7 kts 218°
2026-04-24 06:27 24.42207 54.66735 95 ft 8 kts 218°
2026-04-24 06:27 24.42191 54.66689 96 ft 7 kts 285°
2026-04-24 06:27 24.42210 54.66654 97 ft 3 kts 307°
2026-04-24 06:28 24.42254 54.66590 95 ft 39 kts 308°
2026-04-24 06:28 24.42581 54.66136 97 ft 110 kts 307°
2026-04-24 06:28 24.43181 54.65293 100 ft 168 kts 307°
2026-04-24 06:28 24.43931 54.64206 536 ft 173 kts 310°
2026-04-24 06:29 24.44673 54.63158 1159 ft 177 kts 311°
2026-04-24 06:29 24.45460 54.62070 1662 ft 188 kts 311°
2026-04-24 06:29 24.46291 54.60903 2143 ft 201 kts 311°
2026-04-24 06:29 24.47179 54.59653 2629 ft 215 kts 310°
2026-04-24 06:30 24.48127 54.58316 3111 ft 228 kts 310°
2026-04-24 06:30 24.49145 54.56883 3484 ft 248 kts 309°
2026-04-24 06:30 24.50234 54.55361 4027 ft 259 kts 311°
2026-04-24 06:30 24.51664 54.54150 4428 ft 271 kts 338°
2026-04-24 06:31 24.53553 54.53800 4962 ft 277 kts
2026-04-24 06:31 24.55381 54.54460 5550 ft 281 kts 34°
2026-04-24 06:31 24.56736 54.55988 6139 ft 283 kts 63°
2026-04-24 06:31 24.57286 54.58046 6685 ft 283 kts 91°
2026-04-24 06:32 24.56910 54.60148 7245 ft 283 kts 117°
2026-04-24 06:32 24.55947 54.62002 7871 ft 285 kts 124°
2026-04-24 06:32 24.54879 54.63855 8524 ft 289 kts 124°
2026-04-24 06:32 24.53813 54.65748 9198 ft 294 kts 123°
2026-04-24 06:33 24.52750 54.67688 9885 ft 298 kts 123°
2026-04-24 06:33 24.51674 54.69680 10352 ft 311 kts 122°
2026-04-24 06:33 24.50548 54.71787 10628 ft 329 kts 122°
2026-04-24 06:33 24.49363 54.74017 10882 ft 348 kts 122°
2026-04-24 06:34 24.48113 54.76377 11129 ft 365 kts 122°
2026-04-24 06:34 24.46829 54.78804 11654 ft 370 kts 121°
2026-04-24 06:34 24.45532 54.81259 12347 ft 372 kts 121°
2026-04-24 06:34 24.44234 54.83715 13066 ft 372 kts 121°
2026-04-24 06:35 24.42934 54.86167 13804 ft 371 kts 121°
2026-04-24 06:35 24.41639 54.88612 14489 ft 370 kts 121°
2026-04-24 06:35 24.40347 54.91051 15182 ft 369 kts 121°
2026-04-24 06:35 24.39051 54.93498 15750 ft 374 kts 121°
2026-04-24 06:36 24.37723 54.96000 16041 ft 386 kts 121°
2026-04-24 06:36 24.36348 54.98589 16260 ft 399 kts 121°
2026-04-24 06:36 24.34932 55.01255 16453 ft 411 kts 121°
2026-04-24 06:36 24.33470 55.03999 16636 ft 422 kts 121°
2026-04-24 06:37 24.31972 55.06817 16794 ft 432 kts 121°
2026-04-24 06:37 24.30477 55.09707 17056 ft 438 kts 120°
2026-04-24 06:37 24.28986 55.12639 17421 ft 442 kts 120°
2026-04-24 06:37 24.27485 55.15586 17800 ft 444 kts 120°
2026-04-24 06:38 24.25972 55.18546 18181 ft 447 kts 120°
2026-04-24 06:38 24.24447 55.21518 18508 ft 449 kts 120°
2026-04-24 06:38 24.23427 55.23503 18738 ft 451 kts 120°
2026-04-24 06:38 24.21384 55.27471 19173 ft 454 kts 120°
2026-04-24 06:39 24.19826 55.30491 19522 ft 456 kts 120°
2026-04-24 06:39 24.18265 55.33533 19871 ft 459 kts 119°
2026-04-24 06:39 24.16902 55.36702 20242 ft 462 kts 114°
2026-04-24 06:39 24.16059 55.38893 20489 ft 464 kts 113°
2026-04-24 06:40 24.14402 55.43228 20987 ft 467 kts 113°
2026-04-24 06:40 24.13552 55.45444 21240 ft 469 kts 114°
2026-04-24 06:40 24.12282 55.48752 21627 ft 472 kts 114°
2026-04-24 06:40 24.11003 55.52071 22028 ft 475 kts 114°
2026-04-24 06:41 24.09718 55.55410 22421 ft 478 kts 114°
2026-04-24 06:41 24.08422 55.58776 22800 ft 481 kts 114°
2026-04-24 06:41 24.07168 55.62025 23158 ft 483 kts 114°
2026-04-24 06:41 24.05728 55.65509 23520 ft 485 kts 118°
2026-04-24 06:42 24.04194 55.68754 23805 ft 488 kts 118°
2026-04-24 06:42 24.02622 55.72053 24079 ft 490 kts 118°
2026-04-24 06:42 24.01043 55.75363 24346 ft 492 kts 118°
2026-04-24 06:42 23.99453 55.78692 24635 ft 494 kts 118°
2026-04-24 06:43 23.97856 55.82030 24912 ft 496 kts 118°
2026-04-24 06:43 23.96259 55.85376 25269 ft 496 kts 118°
2026-04-24 06:43 23.94663 55.88717 25629 ft 495 kts 118°
2026-04-24 06:43 23.93068 55.92054 25991 ft 495 kts 118°
2026-04-24 06:44 23.91471 55.95390 26353 ft 495 kts 118°
2026-04-24 06:44 23.89882 55.98717 26733 ft 494 kts 118°
2026-04-24 06:44 23.88290 56.02045 27103 ft 494 kts 118°
2026-04-24 06:44 23.86700 56.05371 27458 ft 494 kts 118°
2026-04-24 06:45 23.85103 56.08700 27823 ft 493 kts 118°
2026-04-24 06:45 23.83511 56.12017 28215 ft 493 kts 118°
2026-04-24 06:45 23.81917 56.15333 28545 ft 493 kts 118°
2026-04-24 06:45 23.80328 56.18640 28939 ft 492 kts 118°
2026-04-24 06:46 23.78741 56.21942 29317 ft 491 kts 118°
2026-04-24 06:46 23.77156 56.25242 29686 ft 491 kts 118°
2026-04-24 06:46 23.75571 56.28538 30057 ft 490 kts 118°
2026-04-24 06:46 23.73980 56.31835 30343 ft 490 kts 118°
2026-04-24 06:47 23.72395 56.35124 30630 ft 490 kts 118°
2026-04-24 06:47 23.70830 56.38373 30903 ft 489 kts 118°
2026-04-24 06:47 23.69222 56.41703 31171 ft 490 kts 118°
2026-04-24 06:47 23.67637 56.44984 31437 ft 490 kts 118°
2026-04-24 06:48 23.66067 56.48231 31698 ft 490 kts 118°
2026-04-24 06:48 23.64478 56.51509 31971 ft 490 kts 118°
2026-04-24 06:48 23.62865 56.54836 32231 ft 489 kts 118°
2026-04-24 06:48 23.61297 56.58073 32486 ft 489 kts 118°
2026-04-24 06:49 23.59688 56.61397 32735 ft 489 kts 118°
2026-04-24 06:49 23.58119 56.64637 32972 ft 489 kts 118°
2026-04-24 06:49 23.56530 56.67911 33197 ft 489 kts 118°
2026-04-24 06:49 23.54915 56.71236 33431 ft 490 kts 118°
2026-04-24 06:50 23.53341 56.74472 33646 ft 489 kts 118°
2026-04-24 06:50 23.51748 56.77751 33841 ft 490 kts 118°
2026-04-24 06:50 23.50156 56.81026 34028 ft 490 kts 118°
2026-04-24 06:50 23.48557 56.84310 34182 ft 490 kts 118°
2026-04-24 06:51 23.46957 56.87592 34310 ft 491 kts 118°
2026-04-24 06:51 23.45351 56.90887 34443 ft 492 kts 118°
2026-04-24 06:51 23.43746 56.94178 34578 ft 493 kts 118°
2026-04-24 06:51 23.42132 56.97478 34709 ft 494 kts 118°
2026-04-24 06:52 23.40536 57.00740 34841 ft 494 kts 118°
2026-04-24 06:52 23.38900 57.04085 34968 ft 495 kts 117°
2026-04-24 06:52 23.37323 57.07369 35006 ft 496 kts 116°
2026-04-24 06:53 23.34272 57.14101 34981 ft 496 kts 116°
2026-04-24 06:53 23.31224 57.20829 34972 ft 496 kts 116°
2026-04-24 06:54 23.28173 57.27549 34969 ft 496 kts 115°
2026-04-24 06:54 23.25120 57.34279 34974 ft 495 kts 116°
2026-04-24 06:55 23.22056 57.40995 34971 ft 495 kts 116°
2026-04-24 06:55 23.18996 57.47698 34973 ft 495 kts 115°
2026-04-24 06:56 23.15933 57.54420 34966 ft 494 kts 115°
2026-04-24 06:56 23.12860 57.61127 34970 ft 494 kts 116°
2026-04-24 06:57 23.09786 57.67834 34968 ft 495 kts 115°
2026-04-24 06:57 23.06736 57.74534 34961 ft 495 kts 115°
2026-04-24 06:58 23.03682 57.81233 34949 ft 495 kts 114°
2026-04-24 06:58 23.01810 57.88348 34949 ft 489 kts 92°
2026-04-24 06:59 23.01739 57.95702 34944 ft 485 kts 86°
2026-04-24 06:59 23.01795 58.03032 34935 ft 486 kts 87°
2026-04-24 07:00 23.01802 58.10353 34929 ft 485 kts 87°
2026-04-24 07:00 23.01793 58.17677 34923 ft 485 kts 87°
2026-04-24 07:01 23.01796 58.24951 34914 ft 485 kts 87°
2026-04-24 07:01 23.01776 58.32257 34909 ft 484 kts 87°
2026-04-24 07:02 23.01830 58.39565 34919 ft 483 kts 85°
2026-04-24 07:02 23.02069 58.46854 34907 ft 483 kts 84°
2026-04-24 07:03 23.02314 58.54116 34907 ft 481 kts 85°
2026-04-24 07:03 23.02551 58.61387 34899 ft 482 kts 85°
2026-04-24 07:04 23.02790 58.68653 34894 ft 481 kts 85°
2026-04-24 07:04 23.03025 58.75911 34891 ft 481 kts 84°
2026-04-24 07:05 23.03262 58.83162 34886 ft 481 kts 85°
2026-04-24 07:05 23.03490 58.90403 34885 ft 480 kts 85°
2026-04-24 07:06 23.03715 58.97644 34882 ft 480 kts 85°
2026-04-24 07:06 23.03934 59.04873 34877 ft 479 kts 85°
2026-04-24 07:07 23.04147 59.12100 34876 ft 479 kts 85°
2026-04-24 07:07 23.04457 59.22890 34867 ft 478 kts 85°
2026-04-24 07:08 23.04662 59.30103 34865 ft 478 kts 85°
2026-04-24 07:08 23.04862 59.37310 34863 ft 478 kts 85°
2026-04-24 07:09 23.04993 59.44512 34859 ft 477 kts 86°
2026-04-24 07:09 23.05101 59.51719 34851 ft 477 kts 86°
2026-04-24 07:10 23.05205 59.58914 34851 ft 477 kts 86°
2026-04-24 07:10 23.05314 59.66099 34850 ft 476 kts 86°
2026-04-24 07:11 23.05421 59.73281 34852 ft 475 kts 86°
2026-04-24 07:11 23.05520 59.80460 34855 ft 475 kts 86°
2026-04-24 07:12 23.05613 59.87641 34852 ft 474 kts 86°
2026-04-24 07:12 23.05707 59.94809 34853 ft 474 kts 86°
2026-04-24 07:13 23.05800 60.01975 34851 ft 474 kts 86°
2026-04-24 07:13 23.05886 60.09129 34853 ft 474 kts 86°
2026-04-24 07:14 23.05969 60.16284 34854 ft 474 kts 86°
2026-04-24 07:14 23.06049 60.23434 34856 ft 473 kts 86°
2026-04-24 07:15 23.06123 60.30580 34862 ft 473 kts 86°
2026-04-24 07:15 23.06197 60.37719 34848 ft 473 kts 86°
2026-04-24 07:16 23.06265 60.44851 34856 ft 472 kts 86°
2026-04-24 07:16 23.06331 60.51986 34860 ft 472 kts 87°
2026-04-24 07:17 23.06395 60.59118 34852 ft 473 kts 86°
2026-04-24 07:17 23.06456 60.66199 34852 ft 472 kts 87°
2026-04-24 07:18 23.06510 60.73361 34850 ft 472 kts 87°
2026-04-24 07:18 23.06569 60.80433 34853 ft 471 kts 87°
2026-04-24 07:19 23.06621 60.87536 34864 ft 470 kts 87°
2026-04-24 07:19 23.06666 60.94631 34855 ft 470 kts 87°
2026-04-24 07:20 23.06708 61.01732 34856 ft 469 kts 87°
2026-04-24 07:20 23.06752 61.08825 34864 ft 469 kts 87°
2026-04-24 07:21 23.06792 61.15905 34866 ft 469 kts 87°
2026-04-24 07:21 23.06832 61.22987 34863 ft 468 kts 87°
2026-04-24 07:22 23.06864 61.30064 34866 ft 469 kts 87°
2026-04-24 07:22 23.06895 61.37136 34864 ft 468 kts 86°
2026-04-24 07:23 23.06922 61.44197 34863 ft 467 kts 86°
2026-04-24 07:23 23.06942 61.51245 34864 ft 467 kts 86°
2026-04-24 07:24 23.06959 61.58244 34856 ft 466 kts 86°
2026-04-24 07:24 23.06974 61.65279 34864 ft 466 kts 86°
2026-04-24 07:25 23.06988 61.72305 34867 ft 466 kts 87°
2026-04-24 07:25 23.07000 61.79335 34863 ft 465 kts 87°
2026-04-24 07:26 23.06992 61.86353 34870 ft 464 kts 87°
2026-04-24 07:26 23.06990 61.93361 34865 ft 464 kts 87°
2026-04-24 07:27 23.06987 62.00363 34861 ft 464 kts 87°
2026-04-24 07:27 23.06986 62.06191 34864 ft 463 kts 87°
2026-04-24 07:28 23.06990 62.13193 34866 ft 463 kts 87°
2026-04-24 07:28 23.06971 62.20193 34860 ft 463 kts 88°
2026-04-24 07:29 23.06948 62.27198 34867 ft 463 kts 87°
2026-04-24 07:29 23.06929 62.34190 34859 ft 463 kts 87°
2026-04-24 07:30 23.06909 62.41178 34866 ft 463 kts 88°
2026-04-24 07:30 23.06891 62.48165 34862 ft 463 kts 88°
2026-04-24 07:31 23.06880 62.55152 34866 ft 463 kts 88°
2026-04-24 07:31 23.06854 62.62140 34881 ft 463 kts 88°
2026-04-24 07:32 23.06822 62.69125 34869 ft 462 kts 88°
2026-04-24 07:32 23.06784 62.76108 34867 ft 462 kts 88°
2026-04-24 07:33 23.06748 62.83093 34858 ft 462 kts 88°
2026-04-24 07:33 23.06705 62.90082 34869 ft 462 kts 88°
2026-04-24 07:34 23.06663 62.97070 34870 ft 462 kts 88°
2026-04-24 07:34 23.06613 63.04051 34866 ft 462 kts 88°
2026-04-24 07:35 23.06561 63.10990 34866 ft 462 kts 88°
2026-04-24 07:35 23.06510 63.18008 34857 ft 462 kts 88°
2026-04-24 07:36 23.06450 63.24942 34868 ft 462 kts 88°
2026-04-24 07:36 23.06390 63.31917 34867 ft 462 kts 88°
2026-04-24 07:37 23.06326 63.38886 34867 ft 462 kts 88°
2026-04-24 07:37 23.06264 63.45857 34864 ft 462 kts 88°
2026-04-24 07:38 23.06195 63.52824 34863 ft 462 kts 88°
2026-04-24 07:38 23.06121 63.59794 34862 ft 462 kts 88°
2026-04-24 07:39 23.06053 63.66757 34861 ft 461 kts 88°
2026-04-24 07:39 23.05974 63.73722 34865 ft 461 kts 88°
2026-04-24 07:40 23.05892 63.80680 34859 ft 461 kts 88°
2026-04-24 07:40 23.05719 63.87596 34855 ft 462 kts 92°
2026-04-24 07:41 23.05022 63.94539 34864 ft 463 kts 94°
2026-04-24 07:41 23.04298 64.01485 34858 ft 462 kts 94°
2026-04-24 07:42 23.03587 64.08425 34860 ft 462 kts 94°
2026-04-24 07:42 23.02878 64.15359 34863 ft 462 kts 94°
2026-04-24 07:43 23.02187 64.22294 34864 ft 462 kts 94°
2026-04-24 07:43 23.01475 64.29218 34863 ft 462 kts 94°
2026-04-24 07:44 23.00755 64.36145 34862 ft 462 kts 94°
2026-04-24 07:44 23.00032 64.43072 34856 ft 462 kts 94°
2026-04-24 07:45 22.99304 64.50000 34857 ft 461 kts 94°
2026-04-24 07:45 22.98577 64.56921 34858 ft 461 kts 94°
2026-04-24 07:46 22.97847 64.63846 34858 ft 462 kts 94°
2026-04-24 07:46 22.97114 64.70765 34853 ft 461 kts 94°
2026-04-24 07:47 22.96378 64.77642 34861 ft 462 kts 94°
2026-04-24 07:47 22.95765 64.84570 34857 ft 461 kts 89°
2026-04-24 07:48 22.95789 64.91513 34859 ft 460 kts 86°
2026-04-24 07:48 22.95863 64.98453 34857 ft 460 kts 87°
2026-04-24 07:49 22.95902 65.05401 34854 ft 460 kts 87°
2026-04-24 07:49 22.95922 65.12351 34860 ft 461 kts 87°
2026-04-24 07:50 22.95950 65.19299 34858 ft 461 kts 87°
2026-04-24 07:50 22.95984 65.26251 34855 ft 461 kts 87°
2026-04-24 07:51 22.96013 65.33202 34853 ft 461 kts 87°
2026-04-24 07:51 22.96054 65.40165 34860 ft 461 kts 87°
2026-04-24 07:52 22.96069 65.47119 34856 ft 461 kts 87°
2026-04-24 07:52 22.96090 65.54075 34853 ft 461 kts 87°
2026-04-24 07:53 22.96105 65.61040 34855 ft 461 kts 87°
2026-04-24 07:53 22.96122 65.67960 34855 ft 462 kts 87°
2026-04-24 07:54 22.96124 65.74928 34853 ft 461 kts 88°
2026-04-24 07:54 22.96126 65.81884 34849 ft 461 kts 88°
2026-04-24 07:55 22.96125 65.88842 34846 ft 461 kts 88°
2026-04-24 07:55 22.96127 65.95803 34846 ft 461 kts 88°
2026-04-24 07:56 22.96127 66.02759 34847 ft 461 kts 88°
2026-04-24 07:56 22.96126 66.09710 34862 ft 461 kts 88°
2026-04-24 07:57 22.96117 66.16655 34855 ft 460 kts 88°
2026-04-24 07:57 22.96101 66.23604 34847 ft 460 kts 88°
2026-04-24 07:58 22.96085 66.30547 34848 ft 460 kts 88°
2026-04-24 07:58 22.96065 66.37483 34849 ft 460 kts 88°
2026-04-24 07:59 22.96042 66.44429 34848 ft 460 kts 88°
2026-04-24 07:59 22.96025 66.51313 34846 ft 459 kts 88°
2026-04-24 08:00 22.95997 66.58238 34848 ft 459 kts 89°
2026-04-24 08:00 22.95966 66.65158 34846 ft 459 kts 88°
2026-04-24 08:01 22.95927 66.72069 34849 ft 458 kts 89°
2026-04-24 08:01 22.95886 66.78983 34859 ft 458 kts 88°
2026-04-24 08:02 22.95847 66.85899 34851 ft 458 kts 89°
2026-04-24 08:02 22.95804 66.92807 34843 ft 458 kts 89°
2026-04-24 08:03 22.95767 66.99720 34845 ft 458 kts 88°
2026-04-24 08:03 22.95791 67.06630 34843 ft 458 kts 88°
2026-04-24 08:04 22.95811 67.13535 34845 ft 458 kts 88°
2026-04-24 08:04 22.95825 67.20442 34846 ft 458 kts 88°
2026-04-24 08:05 22.95835 67.27306 34844 ft 458 kts 88°
2026-04-24 08:05 22.95839 67.34212 34845 ft 458 kts 88°
2026-04-24 08:06 22.95853 67.41127 34846 ft 458 kts 88°
2026-04-24 08:06 22.95847 67.48038 34846 ft 458 kts 88°
2026-04-24 08:07 22.95848 67.54944 34844 ft 458 kts 88°
2026-04-24 08:07 22.95844 67.61846 34848 ft 458 kts 88°
2026-04-24 08:08 22.95837 67.68759 34839 ft 458 kts 88°
2026-04-24 08:09 22.95802 67.79074 34852 ft 458 kts 88°
2026-04-24 08:09 22.95778 67.85989 34848 ft 458 kts 89°
2026-04-24 08:10 22.95781 67.92899 34840 ft 458 kts 88°
2026-04-24 08:10 22.95780 67.99815 34841 ft 458 kts 88°
2026-04-24 08:11 22.95795 68.06720 34844 ft 458 kts 88°
2026-04-24 08:11 22.95805 68.13635 34841 ft 458 kts 88°
2026-04-24 08:12 22.95808 68.20554 34844 ft 459 kts 88°
2026-04-24 08:12 22.95807 68.27481 34844 ft 459 kts 88°
2026-04-24 08:13 22.95795 68.34401 34841 ft 459 kts 88°
2026-04-24 08:13 22.95590 68.41319 34845 ft 459 kts 92°
2026-04-24 08:14 22.95177 68.48228 34842 ft 460 kts 92°
2026-04-24 08:14 22.94777 68.55149 34842 ft 460 kts 91°
2026-04-24 08:15 22.94390 68.62072 34835 ft 460 kts 91°
2026-04-24 08:15 22.93991 68.68998 34837 ft 459 kts 92°
2026-04-24 08:16 22.93653 68.74744 34836 ft 459 kts 92°
2026-04-24 08:16 22.93240 68.81657 34834 ft 459 kts 92°
2026-04-24 08:17 22.92822 68.88558 34840 ft 459 kts 92°
2026-04-24 08:17 22.92407 68.95471 34840 ft 459 kts 92°
2026-04-24 08:18 22.91987 69.02377 34829 ft 459 kts 92°
2026-04-24 08:18 22.91567 69.09287 34842 ft 459 kts 92°
2026-04-24 08:19 22.91145 69.16187 34832 ft 459 kts 92°
2026-04-24 08:19 22.90720 69.23087 34831 ft 459 kts 92°
2026-04-24 08:20 22.90284 69.29992 34828 ft 459 kts 92°
2026-04-24 08:20 22.89851 69.36896 34824 ft 459 kts 92°
2026-04-24 08:21 22.89422 69.43752 34830 ft 459 kts 92°
2026-04-24 08:21 22.88990 69.50574 34839 ft 459 kts 92°
2026-04-24 08:22 22.88543 69.57549 34831 ft 459 kts 92°
2026-04-24 08:22 22.88101 69.64443 34830 ft 459 kts 92°
2026-04-24 08:23 22.87652 69.71340 34821 ft 459 kts 92°
2026-04-24 08:23 22.87251 69.78246 34825 ft 459 kts 91°
2026-04-24 08:24 22.86859 69.85146 34834 ft 459 kts 91°
2026-04-24 08:24 22.86453 69.92045 34827 ft 459 kts 91°
2026-04-24 08:25 22.86048 69.98951 34826 ft 459 kts 91°
2026-04-24 08:25 22.85638 70.05859 34827 ft 459 kts 92°
2026-04-24 08:26 22.85223 70.12763 34836 ft 459 kts 92°
2026-04-24 08:26 22.84813 70.19593 34840 ft 459 kts 92°
2026-04-24 08:27 22.84393 70.26524 34838 ft 459 kts 92°
2026-04-24 08:27 22.83967 70.33477 34843 ft 459 kts 92°
2026-04-24 08:28 22.83543 70.40354 34844 ft 460 kts 92°
2026-04-24 08:28 22.83115 70.47269 34843 ft 460 kts 92°
2026-04-24 08:29 22.82685 70.54187 34835 ft 460 kts 92°
2026-04-24 08:29 22.82249 70.61108 34831 ft 460 kts 92°
2026-04-24 08:30 22.81806 70.68023 34830 ft 460 kts 92°
2026-04-24 08:30 22.81368 70.74947 34832 ft 461 kts 92°
2026-04-24 08:31 22.80955 70.81876 34830 ft 460 kts 89°
2026-04-24 08:31 22.81598 70.88732 34826 ft 458 kts 78°
2026-04-24 08:32 22.82660 70.95538 34833 ft 458 kts 79°
2026-04-24 08:32 22.83690 71.02349 34824 ft 458 kts 79°
2026-04-24 08:33 22.84707 71.09159 34819 ft 458 kts 79°
2026-04-24 08:33 22.85722 71.15980 34819 ft 458 kts 79°
2026-04-24 08:34 22.86737 71.22802 34814 ft 458 kts 79°
2026-04-24 08:34 22.87743 71.29588 34809 ft 458 kts 79°
2026-04-24 08:35 22.88752 71.36411 34808 ft 459 kts 79°
2026-04-24 08:35 22.89755 71.43246 34804 ft 459 kts 79°
2026-04-24 08:36 22.90756 71.50082 34803 ft 459 kts 79°
2026-04-24 08:36 22.91760 71.56907 34797 ft 459 kts 79°
2026-04-24 08:37 22.92757 71.63755 34796 ft 459 kts 79°
2026-04-24 08:37 22.93756 71.70600 34797 ft 459 kts 79°
2026-04-24 08:38 22.94749 71.77443 34788 ft 459 kts 79°
2026-04-24 08:38 22.95739 71.84298 34793 ft 460 kts 79°
2026-04-24 08:39 22.96712 71.91057 34787 ft 460 kts 79°
2026-04-24 08:39 22.97704 71.97983 34783 ft 460 kts 80°
2026-04-24 08:40 22.98681 72.04843 34778 ft 460 kts 80°
2026-04-24 08:40 22.99665 72.11714 34780 ft 461 kts 80°
2026-04-24 08:41 23.00645 72.18595 34774 ft 461 kts 80°
2026-04-24 08:41 23.01620 72.25473 34770 ft 462 kts 80°
2026-04-24 08:42 23.02581 72.32319 34766 ft 462 kts 80°
2026-04-24 08:42 23.03558 72.39227 34762 ft 463 kts 80°
2026-04-24 08:43 23.04532 72.46133 34762 ft 463 kts 80°
2026-04-24 08:43 23.05501 72.53059 34760 ft 464 kts 80°
2026-04-24 08:44 23.06460 72.59983 34761 ft 464 kts 81°
2026-04-24 08:44 23.07108 72.66966 34758 ft 466 kts 85°
2026-04-24 08:45 23.07494 72.73983 34751 ft 466 kts 86°
2026-04-24 08:45 23.07883 72.81015 34760 ft 467 kts 86°
2026-04-24 08:46 23.08276 72.88057 34762 ft 467 kts 86°
2026-04-24 08:46 23.08659 72.95062 34769 ft 468 kts 86°
2026-04-24 08:47 23.09046 73.02114 34774 ft 468 kts 86°
2026-04-24 08:47 23.09426 73.09180 34773 ft 469 kts 86°
2026-04-24 08:48 23.09814 73.16252 34777 ft 469 kts 86°
2026-04-24 08:48 23.10185 73.23323 34778 ft 469 kts 86°
2026-04-24 08:49 23.10567 73.30399 34782 ft 469 kts 86°
2026-04-24 08:49 23.10940 73.37476 34780 ft 470 kts 86°
2026-04-24 08:50 23.11302 73.44562 34787 ft 470 kts 86°
2026-04-24 08:50 23.11667 73.51658 34790 ft 470 kts 86°
2026-04-24 08:51 23.12028 73.58749 34795 ft 470 kts 86°
2026-04-24 08:51 23.12380 73.65801 34799 ft 470 kts 86°
2026-04-24 08:52 23.12739 73.72905 34811 ft 471 kts 86°
2026-04-24 08:52 23.13093 73.80013 34807 ft 471 kts 86°
2026-04-24 08:53 23.13444 73.87113 34812 ft 471 kts 86°
2026-04-24 08:53 23.13790 73.94224 34810 ft 471 kts 87°
2026-04-24 08:54 23.14132 74.01335 34813 ft 471 kts 87°
2026-04-24 08:54 23.14473 74.08451 34815 ft 472 kts 87°
2026-04-24 08:55 23.14808 74.15568 34824 ft 472 kts 87°
2026-04-24 08:55 23.15145 74.22693 34829 ft 472 kts 87°
2026-04-24 08:56 23.15476 74.29811 34832 ft 472 kts 87°
2026-04-24 08:56 23.15735 74.36937 34842 ft 472 kts 88°
2026-04-24 08:57 23.15885 74.44026 34846 ft 472 kts 89°
2026-04-24 08:57 23.16031 74.51153 34844 ft 472 kts 89°
2026-04-24 08:58 23.16170 74.58284 34851 ft 472 kts 89°
2026-04-24 08:58 23.16316 74.65418 34857 ft 472 kts 89°
2026-04-24 08:59 23.16455 74.72559 34856 ft 472 kts 89°
2026-04-24 08:59 23.16584 74.79703 34865 ft 472 kts 89°
2026-04-24 09:00 23.16719 74.86843 34866 ft 473 kts 89°
2026-04-24 09:00 23.16854 74.93991 34871 ft 473 kts 89°
2026-04-24 09:01 23.16977 75.01148 34876 ft 474 kts 89°
2026-04-24 09:01 23.17098 75.08320 34875 ft 474 kts 89°
2026-04-24 09:02 23.17204 75.15481 34873 ft 475 kts 89°
2026-04-24 09:02 23.17309 75.22613 34881 ft 475 kts 89°
2026-04-24 09:03 23.17439 75.29787 34879 ft 475 kts 89°
2026-04-24 09:03 23.17562 75.36958 34880 ft 475 kts 89°
2026-04-24 09:04 23.17672 75.44130 34875 ft 475 kts 89°
2026-04-24 09:04 23.17772 75.51299 34877 ft 475 kts 89°
2026-04-24 09:05 23.17869 75.58480 34873 ft 475 kts 89°
2026-04-24 09:05 23.17970 75.65659 34871 ft 475 kts 89°
2026-04-24 09:06 23.18049 75.71677 34868 ft 475 kts 90°
2026-04-24 09:06 23.18150 75.80037 34868 ft 476 kts 90°
2026-04-24 09:07 23.18225 75.86017 34873 ft 476 kts 90°
2026-04-24 09:07 23.18355 75.96813 34856 ft 477 kts 90°
2026-04-24 09:08 23.18699 76.04016 34850 ft 477 kts 85°
2026-04-24 09:08 23.19268 76.11207 34847 ft 478 kts 85°
2026-04-24 09:09 23.19826 76.18399 34841 ft 478 kts 85°
2026-04-24 09:09 23.20377 76.25601 34842 ft 478 kts 86°
2026-04-24 09:10 23.20914 76.32817 34837 ft 479 kts 86°
2026-04-24 09:10 23.21460 76.40036 34833 ft 479 kts 86°
2026-04-24 09:11 23.22006 76.47268 34835 ft 480 kts 86°
2026-04-24 09:11 23.22552 76.54504 34836 ft 480 kts 86°
2026-04-24 09:12 23.23086 76.61742 34833 ft 481 kts 86°
2026-04-24 09:12 23.23627 76.68991 34833 ft 481 kts 86°
2026-04-24 09:13 23.24170 76.76254 34828 ft 482 kts 86°
2026-04-24 09:13 23.24720 76.83515 34827 ft 482 kts 86°
2026-04-24 09:14 23.25253 76.90741 34829 ft 483 kts 86°
2026-04-24 09:14 23.25778 76.98023 34830 ft 483 kts 86°
2026-04-24 09:15 23.26306 77.05305 34825 ft 483 kts 86°
2026-04-24 09:15 23.26828 77.12601 34828 ft 484 kts 86°
2026-04-24 09:16 23.27347 77.19901 34831 ft 484 kts 86°
2026-04-24 09:16 23.27863 77.27202 34823 ft 485 kts 87°
2026-04-24 09:17 23.28304 77.34517 34820 ft 484 kts 91°
2026-04-24 09:17 23.28011 77.41847 35090 ft 485 kts 95°
2026-04-24 09:18 23.27834 77.45509 35281 ft 485 kts 95°
2026-04-24 09:18 23.27670 77.49172 35459 ft 485 kts 94°
2026-04-24 09:18 23.27515 77.52837 35615 ft 486 kts 94°
2026-04-24 09:18 23.27364 77.56514 35774 ft 486 kts 94°
2026-04-24 09:19 23.27215 77.60140 35924 ft 487 kts 94°
2026-04-24 09:19 23.27059 77.63814 36076 ft 487 kts 95°
2026-04-24 09:19 23.26901 77.67502 36224 ft 487 kts 95°
2026-04-24 09:19 23.26745 77.71185 36359 ft 488 kts 95°
2026-04-24 09:20 23.26591 77.74872 36505 ft 488 kts 95°
2026-04-24 09:20 23.26379 77.79807 36688 ft 489 kts 95°
2026-04-24 09:20 23.26110 77.85951 36858 ft 490 kts 95°
2026-04-24 09:21 23.25788 77.93353 36837 ft 490 kts 95°
2026-04-24 09:21 23.25457 78.00758 36824 ft 491 kts 95°
2026-04-24 09:22 23.25126 78.08183 36825 ft 491 kts 95°
2026-04-24 09:22 23.24787 78.15601 36826 ft 491 kts 95°
2026-04-24 09:23 23.24448 78.23035 36827 ft 492 kts 95°
2026-04-24 09:23 23.24105 78.30479 36822 ft 493 kts 95°
2026-04-24 09:24 23.23755 78.37919 36822 ft 493 kts 95°
2026-04-24 09:24 23.23407 78.45371 36822 ft 494 kts 95°
2026-04-24 09:25 23.23054 78.52814 36827 ft 494 kts 95°
2026-04-24 09:25 23.22694 78.60279 36827 ft 495 kts 95°
2026-04-24 09:26 23.22331 78.67731 36827 ft 495 kts 95°
2026-04-24 09:26 23.22014 78.75207 36827 ft 495 kts 93°
2026-04-24 09:27 23.21907 78.82644 36826 ft 495 kts 93°
2026-04-24 09:27 23.21810 78.90146 36823 ft 496 kts 93°
2026-04-24 09:28 23.21693 78.97650 36823 ft 497 kts 93°
2026-04-24 09:28 23.21579 79.05148 36819 ft 497 kts 93°
2026-04-24 09:29 23.21457 79.12658 36818 ft 497 kts 93°
2026-04-24 09:29 23.21336 79.20178 36815 ft 497 kts 93°
2026-04-24 09:30 23.21210 79.27698 36814 ft 497 kts 93°
2026-04-24 09:30 23.21069 79.35239 36814 ft 498 kts 93°
2026-04-24 09:31 23.20937 79.42774 36812 ft 499 kts 93°
2026-04-24 09:31 23.20801 79.50305 36823 ft 498 kts 94°
2026-04-24 09:32 23.20630 79.57839 36809 ft 499 kts 95°
2026-04-24 09:32 23.20315 79.65372 36803 ft 499 kts 95°
2026-04-24 09:33 23.19993 79.72911 36808 ft 500 kts 95°
2026-04-24 09:33 23.19669 79.80466 36816 ft 500 kts 95°
2026-04-24 09:34 23.19346 79.88030 36811 ft 502 kts 95°
2026-04-24 09:34 23.19015 79.95596 36812 ft 502 kts 95°
2026-04-24 09:35 23.18681 80.03170 36814 ft 503 kts 95°
2026-04-24 09:35 23.18330 80.10752 36818 ft 503 kts 96°
2026-04-24 09:36 23.17930 80.18290 36818 ft 503 kts 96°
2026-04-24 09:36 23.17540 80.25888 36804 ft 503 kts 96°
2026-04-24 09:37 23.17155 80.33502 36812 ft 504 kts 96°
2026-04-24 09:37 23.16757 80.41118 36802 ft 504 kts 96°
2026-04-24 09:38 23.16351 80.48741 36795 ft 505 kts 96°
2026-04-24 09:38 23.15941 80.56365 36803 ft 506 kts 96°
2026-04-24 09:39 23.15529 80.64016 36802 ft 507 kts 96°
2026-04-24 09:39 23.15111 80.71666 36798 ft 508 kts 96°
2026-04-24 09:40 23.14690 80.79311 36804 ft 508 kts 96°
2026-04-24 09:40 23.14276 80.86977 36802 ft 509 kts 96°
2026-04-24 09:41 23.13854 80.94658 36800 ft 509 kts 96°
2026-04-24 09:41 23.13435 81.02349 36798 ft 510 kts 97°
2026-04-24 09:42 23.13012 81.10031 36799 ft 510 kts 97°
2026-04-24 09:42 23.12577 81.17754 36790 ft 513 kts 97°
2026-04-24 09:43 23.12140 81.25480 36801 ft 514 kts 97°
2026-04-24 09:43 23.11704 81.33155 36796 ft 512 kts 97°
2026-04-24 09:44 23.11255 81.40890 36796 ft 512 kts 97°
2026-04-24 09:44 23.10811 81.48632 36791 ft 513 kts 97°
2026-04-24 09:45 23.10357 81.56384 36793 ft 514 kts 97°
2026-04-24 09:45 23.09903 81.64133 36789 ft 515 kts 97°
2026-04-24 09:46 23.09439 81.71873 36790 ft 516 kts 97°
2026-04-24 09:46 23.08975 81.79626 36780 ft 515 kts 97°
2026-04-24 09:47 23.08499 81.87341 36776 ft 516 kts 97°
2026-04-24 09:47 23.08031 81.95161 36781 ft 516 kts 97°
2026-04-24 09:48 23.07557 82.02950 36774 ft 516 kts 97°
2026-04-24 09:48 23.07073 82.10737 36766 ft 517 kts 97°
2026-04-24 09:49 23.06624 82.18526 36762 ft 518 kts 96°
2026-04-24 09:49 23.06271 82.26352 36762 ft 519 kts 96°
2026-04-24 09:50 23.05928 82.34179 36760 ft 518 kts 96°
2026-04-24 09:50 23.05591 82.41957 36754 ft 519 kts 96°
2026-04-24 09:51 23.05241 82.49784 36754 ft 519 kts 96°
2026-04-24 09:51 23.04887 82.57617 36746 ft 520 kts 96°
2026-04-24 09:52 23.04533 82.65452 36748 ft 519 kts 96°
2026-04-24 09:52 23.04236 82.71979 36752 ft 519 kts 96°
2026-04-24 09:53 23.03873 82.79815 36751 ft 520 kts 96°
2026-04-24 09:53 23.03506 82.87660 36766 ft 520 kts 96°
2026-04-24 09:54 23.03138 82.95492 36761 ft 520 kts 96°
2026-04-24 09:54 23.02761 83.03340 36758 ft 520 kts 97°
2026-04-24 09:55 23.02371 83.11179 36762 ft 520 kts 96°
2026-04-24 09:55 23.01988 83.19026 36771 ft 520 kts 96°
2026-04-24 09:56 23.01602 83.26881 36779 ft 520 kts 96°
2026-04-24 09:56 23.01217 83.34723 36767 ft 521 kts 96°
2026-04-24 09:57 23.00824 83.42577 36782 ft 520 kts 96°
2026-04-24 09:57 23.00425 83.50426 36791 ft 521 kts 96°
2026-04-24 09:58 23.00021 83.58275 36802 ft 521 kts 97°
2026-04-24 09:58 22.99605 83.66137 36798 ft 521 kts 97°
2026-04-24 09:59 22.99193 83.74001 36801 ft 522 kts 97°
2026-04-24 09:59 22.98781 83.81811 36803 ft 522 kts 97°
2026-04-24 10:00 22.98358 83.89674 36814 ft 521 kts 97°
2026-04-24 10:00 22.97938 83.97526 36811 ft 521 kts 97°
2026-04-24 10:01 22.97515 84.05393 36813 ft 522 kts 97°
2026-04-24 10:01 22.97080 84.13254 36816 ft 522 kts 98°
2026-04-24 10:02 22.96526 84.21104 36826 ft 522 kts 98°
2026-04-24 10:02 22.95951 84.28947 36829 ft 521 kts 98°
2026-04-24 10:03 22.95383 84.36734 36828 ft 520 kts 98°
2026-04-24 10:03 22.94813 84.44573 36830 ft 520 kts 98°
2026-04-24 10:04 22.94235 84.52398 36830 ft 522 kts 98°
2026-04-24 10:04 22.93646 84.60249 36837 ft 523 kts 98°
2026-04-24 10:05 22.93070 84.68093 36830 ft 522 kts 98°
2026-04-24 10:05 22.92487 84.75925 36821 ft 521 kts 98°
2026-04-24 10:06 22.91589 84.87670 36818 ft 521 kts 98°
2026-04-24 10:07 22.91003 84.95502 36819 ft 521 kts 98°
2026-04-24 10:07 22.90409 85.03339 36822 ft 521 kts 98°
2026-04-24 10:08 22.89801 85.11173 36820 ft 521 kts 98°
2026-04-24 10:08 22.89191 85.19001 36820 ft 521 kts 98°
2026-04-24 10:09 22.88584 85.26835 36826 ft 521 kts 98°
2026-04-24 10:09 22.87986 85.34612 36821 ft 521 kts 98°
2026-04-24 10:10 22.87376 85.42446 36823 ft 521 kts 98°
2026-04-24 10:10 22.86757 85.50292 36819 ft 522 kts 98°
2026-04-24 10:11 22.86126 85.58134 36818 ft 522 kts 99°
2026-04-24 10:11 22.85508 85.65969 36794 ft 521 kts 98°
2026-04-24 10:12 22.84882 85.73816 36821 ft 522 kts 99°
2026-04-24 10:12 22.84247 85.81653 36791 ft 522 kts 99°
2026-04-24 10:13 22.83607 85.89494 36748 ft 522 kts 99°
2026-04-24 10:13 22.82972 85.97284 36720 ft 522 kts 99°
2026-04-24 10:14 22.82327 86.05126 36698 ft 523 kts 99°
2026-04-24 10:14 22.81678 86.12966 36697 ft 523 kts 99°
2026-04-24 10:15 22.81130 86.20831 36702 ft 524 kts 97°
2026-04-24 10:15 22.80705 86.28715 36707 ft 524 kts 97°
2026-04-24 10:16 22.80285 86.36599 36717 ft 524 kts 97°
2026-04-24 10:16 22.79857 86.44487 36724 ft 526 kts 97°
2026-04-24 10:17 22.79426 86.52382 36734 ft 524 kts 97°
2026-04-24 10:17 22.78984 86.60253 36599 ft 519 kts 97°
2026-04-24 10:17 22.78766 86.64168 36241 ft 522 kts 97°
2026-04-24 10:18 22.78546 86.68113 35962 ft 524 kts 97°
2026-04-24 10:18 22.78323 86.72050 35603 ft 523 kts 97°
2026-04-24 10:18 22.78101 86.75987 35009 ft 523 kts 97°
2026-04-24 10:18 22.77883 86.79871 34345 ft 523 kts 96°
2026-04-24 10:19 22.77657 86.83861 33641 ft 524 kts 96°
2026-04-24 10:19 22.77432 86.87800 32829 ft 525 kts 96°
2026-04-24 10:19 22.77207 86.91705 32026 ft 526 kts 96°
2026-04-24 10:19 22.76979 86.95663 31211 ft 526 kts 95°
2026-04-24 10:20 22.76746 86.99620 30419 ft 526 kts 95°
2026-04-24 10:20 22.76514 87.03563 29594 ft 524 kts 95°
2026-04-24 10:20 22.76284 87.07496 28652 ft 522 kts 94°
2026-04-24 10:20 22.76055 87.11425 27739 ft 520 kts 94°
2026-04-24 10:21 22.75826 87.15319 26813 ft 517 kts 94°
2026-04-24 10:21 22.75596 87.19194 25884 ft 515 kts 94°
2026-04-24 10:21 22.75366 87.23052 25027 ft 510 kts 94°
2026-04-24 10:21 22.75141 87.26870 24233 ft 505 kts 94°
2026-04-24 10:22 22.74916 87.30643 23474 ft 499 kts 94°
2026-04-24 10:22 22.74690 87.34365 22641 ft 492 kts 94°
2026-04-24 10:22 22.74464 87.38039 21815 ft 485 kts 94°
2026-04-24 10:22 22.74318 87.40447 21294 ft 482 kts 94°
2026-04-24 10:23 22.74031 87.45188 20243 ft 468 kts 94°
2026-04-24 10:23 22.73817 87.48695 19521 ft 455 kts 94°
2026-04-24 10:23 22.73613 87.52033 18826 ft 443 kts 94°
2026-04-24 10:23 22.73413 87.55312 18187 ft 432 kts 94°
2026-04-24 10:24 22.73214 87.58535 17507 ft 427 kts 94°
2026-04-24 10:24 22.73016 87.61745 16827 ft 427 kts 94°
2026-04-24 10:24 22.72817 87.64953 16151 ft 426 kts 93°
2026-04-24 10:24 22.72617 87.68151 15497 ft 426 kts 93°
2026-04-24 10:25 22.72413 87.71353 14869 ft 425 kts 93°
2026-04-24 10:25 22.72212 87.74538 14212 ft 425 kts 93°
2026-04-24 10:25 22.72013 87.77726 13561 ft 421 kts 92°
2026-04-24 10:25 22.71815 87.80862 12871 ft 415 kts 93°
2026-04-24 10:26 22.71609 87.83960 12212 ft 409 kts 93°
2026-04-24 10:26 22.71412 87.87012 11587 ft 404 kts 92°
2026-04-24 10:26 22.71226 87.89995 11328 ft 389 kts 92°
2026-04-24 10:26 22.71035 87.92860 11111 ft 374 kts 92°
2026-04-24 10:27 22.70852 87.95606 10799 ft 356 kts 92°
2026-04-24 10:27 22.70683 87.98218 10439 ft 341 kts 92°
2026-04-24 10:27 22.70525 88.00703 10096 ft 329 kts 92°
2026-04-24 10:27 22.70367 88.03156 9773 ft 316 kts 92°
2026-04-24 10:28 22.70216 88.05495 9489 ft 310 kts 92°
2026-04-24 10:28 22.70069 88.07793 9163 ft 310 kts 92°
2026-04-24 10:28 22.69943 88.09785 8881 ft 310 kts 92°
2026-04-24 10:29 22.69793 88.12105 8552 ft 307 kts 92°
2026-04-24 10:29 22.69643 88.14403 8223 ft 304 kts 92°
2026-04-24 10:29 22.69502 88.16668 7901 ft 300 kts 90°
2026-04-24 10:29 22.69738 88.18881 7575 ft 294 kts 69°
2026-04-24 10:30 22.70786 88.20725 7269 ft 287 kts 41°
2026-04-24 10:30 22.72444 88.21847 6974 ft 281 kts 17°
2026-04-24 10:30 22.74319 88.22422 6676 ft 280 kts 14°
2026-04-24 10:30 22.76171 88.23082 6369 ft 281 kts 19°
2026-04-24 10:31 22.77959 88.23949 6063 ft 282 kts 25°
2026-04-24 10:31 22.79659 88.25012 5731 ft 283 kts 31°
2026-04-24 10:31 22.81255 88.26252 5407 ft 280 kts 37°
2026-04-24 10:31 22.82724 88.27637 5091 ft 281 kts 43°
2026-04-24 10:32 22.84079 88.29164 4771 ft 282 kts 48°
2026-04-24 10:32 22.85306 88.30823 4439 ft 283 kts 53°
2026-04-24 10:32 22.86389 88.32595 4106 ft 280 kts 59°
2026-04-24 10:32 22.87308 88.34437 3972 ft 277 kts 64°
2026-04-24 10:33 22.88043 88.36273 3956 ft 261 kts 70°
2026-04-24 10:33 22.88608 88.38083 3968 ft 246 kts 74°
2026-04-24 10:33 22.89017 88.39827 3841 ft 234 kts 79°
2026-04-24 10:33 22.89293 88.41551 3541 ft 231 kts 83°
2026-04-24 10:34 22.89454 88.43276 3223 ft 229 kts 88°
2026-04-24 10:34 22.89421 88.44979 2913 ft 224 kts 109°
2026-04-24 10:34 22.88656 88.46407 2623 ft 219 kts 137°
2026-04-24 10:34 22.87389 88.47265 2330 ft 215 kts 167°
2026-04-24 10:35 22.85898 88.47374 2079 ft 216 kts 185°
2026-04-24 10:35 22.84456 88.47162 1974 ft 202 kts 189°
2026-04-24 10:35 22.83133 88.46919 1953 ft 186 kts 188°
2026-04-24 10:35 22.81861 88.46718 1973 ft 183 kts 186°
2026-04-24 10:36 22.80659 88.46565 2005 ft 164 kts 186°
2026-04-24 10:36 22.79541 88.46431 2007 ft 161 kts 186°
2026-04-24 10:36 22.78428 88.46300 2007 ft 161 kts 186°
2026-04-24 10:36 22.77313 88.46168 1932 ft 162 kts 185°
2026-04-24 10:37 22.76195 88.46037 1750 ft 162 kts 185°
2026-04-24 10:37 22.75075 88.45905 1556 ft 161 kts 186°
2026-04-24 10:37 22.73999 88.45778 1368 ft 150 kts 185°
2026-04-24 10:37 22.73038 88.45665 1190 ft 134 kts 185°
2026-04-24 10:38 22.72111 88.45556 1001 ft 134 kts 185°
2026-04-24 10:38 22.71185 88.45447 829 ft 133 kts 185°
2026-04-24 10:38 22.70264 88.45339 669 ft 133 kts 185°
2026-04-24 10:38 22.69341 88.45230 503 ft 134 kts 185°
2026-04-24 10:39 22.68417 88.45122 334 ft 133 kts 184°
2026-04-24 10:39 22.67499 88.45011 163 ft 132 kts 183°
2026-04-24 10:39 22.66588 88.44908 46 ft 127 kts 182°
2026-04-24 10:39 22.65808 88.44822 36 ft 87 kts 185°
2026-04-24 10:40 22.65369 88.44773 34 ft 46 kts 186°
2026-04-24 10:40 22.65092 88.44737 31 ft 26 kts 192°
2026-04-24 10:40 22.64933 88.44683 31 ft 15 kts 209°
2026-04-24 10:40 22.64834 88.44609 31 ft 19 kts 212°
2026-04-24 10:41 22.64745 88.44546 31 ft 14 kts 217°
2026-04-24 10:41 22.64680 88.44499 33 ft 6 kts 213°
2026-04-24 10:41 22.64659 88.44439 33 ft 11 kts 269°
2026-04-24 10:41 22.64634 88.44369 33 ft 12 kts 199°
2026-04-24 10:42 22.64547 88.44354 33 ft 11 kts 186°
2026-04-24 10:42 22.64490 88.44348 34 ft 14 kts 185°
2026-04-24 10:42 22.64336 88.44327 34 ft 19 kts 187°
2026-04-24 10:42 22.64252 88.44318 34 ft 13 kts 185°
2026-04-24 10:43 22.64108 88.44301 33 ft 18 kts 186°
2026-04-24 10:43 22.64046 88.44294 34 ft 5 kts 186°
2026-04-24 10:43 22.64010 88.44260 34 ft 10 kts 255°
2026-04-24 10:43 22.64013 88.44171 34 ft 14 kts 277°
2026-04-24 10:44 22.64009 88.44088 34 ft 12 kts 249°
2026-04-24 10:44 22.63981 88.44012 34 ft 8 kts 240°
2026-04-24 10:44 22.63968 88.43985 34 ft 4 kts 251°
2026-04-24 10:44 22.63954 88.43946 34 ft 7 kts 259°
2026-04-24 10:45 22.63962 88.43935 34 ft 3 kts 327°
2026-04-24 10:45 22.63989 88.43923 34 ft 5 kts 339°
2026-04-24 10:45 22.64021 88.43910 34 ft 0 kts 337°
2026-04-24 10:45 22.64025 88.43908 34 ft 2 kts 338°
2026-04-24 10:46 22.64034 88.43904 34 ft 0 kts 338°
2026-04-24 10:58 22.64033 88.43904 34 ft 0 kts 338°